owner,sensor,date,latitude,longitude,vertical_datum,wind_speed,wind_to_direction,wind_speed_of_gust,qcFlag 
TCOON,ioos:station:TCOON:006:1,2012-07-01T00:00:00Z,27.8217,-97.2040,0.0,4.1,96.0,5.9,'11111222,11111222,11111222' 
TCOON,ioos:station:TCOON:006:1,2012-07-01T01:00:00Z,27.8217,-97.2040,0.0,4.0,110.0,6.4,'11111222,11111222,11111222' 
TCOON,ioos:station:TCOON:006:1,2012-07-01T02:00:00Z,27.8217,-97.2040,0.0,5.4,134.0,7.3,'11111222,11111222,11111222' 
TCOON,ioos:station:TCOON:006:1,2012-07-01T03:00:00Z,27.8217,-97.2040,0.0,7.0,134.0,8.7,'11111222,11111222,11111222' 
TCOON,ioos:station:TCOON:006:1,2012-07-01T04:00:00Z,27.8217,-97.2040,0.0,7.4,149.0,8.5,'11111222,11111222,11111222' 
TCOON,ioos:station:TCOON:006:1,2012-07-01T05:00:00Z,27.8217,-97.2040,0.0,8.5,167.0,10.4,'11111222,11111222,11111222' 
TCOON,ioos:station:TCOON:006:1,2012-07-01T06:00:00Z,27.8217,-97.2040,0.0,5.4,202.0,6.4,'11111222,11111222,11111222' 
TCOON,ioos:station:TCOON:006:1,2012-07-01T07:00:00Z,27.8217,-97.2040,0.0,2.3,213.0,2.8,'11111222,11111222,11111222' 
TCOON,ioos:station:TCOON:006:1,2012-07-01T08:00:00Z,27.8217,-97.2040,0.0,6.4,215.0,7.1,'11111222,11111222,11111222' 
TCOON,ioos:station:TCOON:006:1,2012-07-01T09:00:00Z,27.8217,-97.2040,0.0,4.5,216.0,5.9,'11111222,11111222,11111222' 
TCOON,ioos:station:TCOON:006:1,2012-07-01T10:00:00Z,27.8217,-97.2040,0.0,2.1,232.0,3.5,'11111222,11111222,11111222' 
TCOON,ioos:station:TCOON:006:1,2012-07-01T11:00:00Z,27.8217,-97.2040,0.0,1.0,349.0,1.7,'11111222,11111222,11111222' 
TCOON,ioos:station:TCOON:006:1,2012-07-01T12:00:00Z,27.8217,-97.2040,0.0,0.9,355.0,3.0,'11111222,11111222,11111222' 
TCOON,ioos:station:TCOON:006:1,2012-07-01T13:00:00Z,27.8217,-97.2040,0.0,4.8,97.0,6.9,'11111222,11111222,11111222' 
TCOON,ioos:station:TCOON:006:1,2012-07-01T14:00:00Z,27.8217,-97.2040,0.0,3.2,91.0,4.7,'11111222,11111222,11111222' 
TCOON,ioos:station:TCOON:006:1,2012-07-01T15:00:00Z,27.8217,-97.2040,0.0,2.5,88.0,3.8,'11111222,11111222,11111222' 
TCOON,ioos:station:TCOON:006:1,2012-07-01T16:00:00Z,27.8217,-97.2040,0.0,6.0,129.0,7.7,'11111222,11111222,11111222' 
TCOON,ioos:station:TCOON:006:1,2012-07-01T17:00:00Z,27.8217,-97.2040,0.0,7.0,152.0,8.4,'11111222,11111222,11111222' 
TCOON,ioos:station:TCOON:006:1,2012-07-01T18:00:00Z,27.8217,-97.2040,0.0,6.1,149.0,8.1,'11111222,11111222,11111222' 
TCOON,ioos:station:TCOON:006:1,2012-07-01T19:00:00Z,27.8217,-97.2040,0.0,6.3,117.0,8.3,'11111222,11111222,11111222' 
TCOON,ioos:station:TCOON:006:1,2012-07-01T20:00:00Z,27.8217,-97.2040,0.0,4.7,120.0,6.8,'11111222,11111222,11111222' 
TCOON,ioos:station:TCOON:006:1,2012-07-01T21:00:00Z,27.8217,-97.2040,0.0,6.1,131.0,8.4,'11111222,11111222,11111222' 
TCOON,ioos:station:TCOON:006:1,2012-07-01T22:00:00Z,27.8217,-97.2040,0.0,6.0,118.0,8.4,'11111222,11111222,11111222' 
TCOON,ioos:station:TCOON:006:1,2012-07-01T23:00:00Z,27.8217,-97.2040,0.0,7.5,129.0,10.1,'11111222,11111222,11111222' 
TCOON,ioos:station:TCOON:006:1,2012-07-02T00:00:00Z,27.8217,-97.2040,0.0,7.5,136.0,9.6,'11111222,11111222,11111222' 
TCOON,ioos:station:TCOON:006:1,2012-07-02T01:00:00Z,27.8217,-97.2040,0.0,5.6,138.0,8.7,'11111222,11111222,11111222' 
TCOON,ioos:station:TCOON:006:1,2012-07-02T02:00:00Z,27.8217,-97.2040,0.0,6.2,137.0,8.1,'11111222,11111222,11111222' 
TCOON,ioos:station:TCOON:006:1,2012-07-02T03:00:00Z,27.8217,-97.2040,0.0,5.3,141.0,7.7,'11111222,11111222,11111222' 
TCOON,ioos:station:TCOON:006:1,2012-07-02T04:00:00Z,27.8217,-97.2040,0.0,5.7,143.0,7.4,'11111222,11111222,11111222' 
TCOON,ioos:station:TCOON:006:1,2012-07-02T05:00:00Z,27.8217,-97.2040,0.0,6.3,146.0,8.4,'11111222,11111222,11111222' 
TCOON,ioos:station:TCOON:006:1,2012-07-02T06:00:00Z,27.8217,-97.2040,0.0,7.3,149.0,10.1,'11111222,11111222,11111222' 
TCOON,ioos:station:TCOON:006:1,2012-07-02T07:00:00Z,27.8217,-97.2040,0.0,6.6,148.0,8.6,'11111222,11111222,11111222' 
TCOON,ioos:station:TCOON:006:1,2012-07-02T08:00:00Z,27.8217,-97.2040,0.0,7.6,150.0,9.2,'11111222,11111222,11111222' 
TCOON,ioos:station:TCOON:006:1,2012-07-02T09:00:00Z,27.8217,-97.2040,0.0,6.4,150.0,7.9,'11111222,11111222,11111222' 
TCOON,ioos:station:TCOON:006:1,2012-07-02T10:00:00Z,27.8217,-97.2040,0.0,7.5,149.0,8.9,'11111222,11111222,11111222' 
TCOON,ioos:station:TCOON:006:1,2012-07-02T11:00:00Z,27.8217,-97.2040,0.0,5.2,143.0,7.4,'11111222,11111222,11111222' 
TCOON,ioos:station:TCOON:006:1,2012-07-02T12:00:00Z,27.8217,-97.2040,0.0,5.5,146.0,7.3,'11111222,11111222,11111222' 
TCOON,ioos:station:TCOON:006:1,2012-07-02T13:00:00Z,27.8217,-97.2040,0.0,5.9,133.0,7.6,'11111222,11111222,11111222' 
TCOON,ioos:station:TCOON:006:1,2012-07-02T14:00:00Z,27.8217,-97.2040,0.0,5.9,144.0,7.9,'11111222,11111222,11111222' 
TCOON,ioos:station:TCOON:006:1,2012-07-02T15:00:00Z,27.8217,-97.2040,0.0,5.9,131.0,7.6,'11111222,11111222,11111222' 
TCOON,ioos:station:TCOON:006:1,2012-07-02T16:00:00Z,27.8217,-97.2040,0.0,6.4,129.0,8.7,'11111222,11111222,11111222' 
TCOON,ioos:station:TCOON:006:1,2012-07-02T17:00:00Z,27.8217,-97.2040,0.0,6.5,129.0,8.7,'11111222,11111222,11111222' 
TCOON,ioos:station:TCOON:006:1,2012-07-02T18:00:00Z,27.8217,-97.2040,0.0,6.8,126.0,8.3,'11111222,11111222,11111222' 
TCOON,ioos:station:TCOON:006:1,2012-07-02T19:00:00Z,27.8217,-97.2040,0.0,5.6,134.0,7.8,'11111222,11111222,11111222' 
TCOON,ioos:station:TCOON:006:1,2012-07-02T20:00:00Z,27.8217,-97.2040,0.0,5.8,133.0,7.1,'11111222,11111222,11111222' 
TCOON,ioos:station:TCOON:006:1,2012-07-02T21:00:00Z,27.8217,-97.2040,0.0,6.4,130.0,7.8,'11111222,11111222,11111222' 
TCOON,ioos:station:TCOON:006:1,2012-07-02T22:00:00Z,27.8217,-97.2040,0.0,5.8,123.0,7.9,'11111222,11111222,11111222' 
TCOON,ioos:station:TCOON:006:1,2012-07-02T23:00:00Z,27.8217,-97.2040,0.0,5.6,125.0,7.7,'11111222,11111222,11111222' 
TCOON,ioos:station:TCOON:006:1,2012-07-03T00:00:00Z,27.8217,-97.2040,0.0,6.2,135.0,7.9,'11111222,11111222,11111222' 
TCOON,ioos:station:TCOON:006:1,2012-07-03T01:00:00Z,27.8217,-97.2040,0.0,6.4,128.0,8.2,'11111222,11111222,11111222' 
TCOON,ioos:station:TCOON:006:1,2012-07-03T02:00:00Z,27.8217,-97.2040,0.0,6.7,130.0,8.0,'11111222,11111222,11111222' 
TCOON,ioos:station:TCOON:006:1,2012-07-03T03:00:00Z,27.8217,-97.2040,0.0,5.5,133.0,7.4,'11111222,11111222,11111222' 
TCOON,ioos:station:TCOON:006:1,2012-07-03T04:00:00Z,27.8217,-97.2040,0.0,5.1,132.0,8.1,'11111222,11111222,11111222' 
TCOON,ioos:station:TCOON:006:1,2012-07-03T05:00:00Z,27.8217,-97.2040,0.0,5.2,141.0,7.4,'11111222,11111222,11111222' 
TCOON,ioos:station:TCOON:006:1,2012-07-03T06:00:00Z,27.8217,-97.2040,0.0,6.8,149.0,8.3,'11111222,11111222,11111222' 
TCOON,ioos:station:TCOON:006:1,2012-07-03T07:00:00Z,27.8217,-97.2040,0.0,6.5,151.0,8.4,'11111222,11111222,11111222' 
TCOON,ioos:station:TCOON:006:1,2012-07-03T08:00:00Z,27.8217,-97.2040,0.0,6.3,150.0,8.1,'11111222,11111222,11111222' 
TCOON,ioos:station:TCOON:006:1,2012-07-03T09:00:00Z,27.8217,-97.2040,0.0,5.7,164.0,7.1,'11111222,11111222,11111222' 
TCOON,ioos:station:TCOON:006:1,2012-07-03T10:00:00Z,27.8217,-97.2040,0.0,6.0,157.0,6.9,'11111222,11111222,11111222' 
TCOON,ioos:station:TCOON:006:1,2012-07-03T11:00:00Z,27.8217,-97.2040,0.0,5.3,150.0,6.9,'11111222,11111222,11111222' 
TCOON,ioos:station:TCOON:006:1,2012-07-03T12:00:00Z,27.8217,-97.2040,0.0,4.4,135.0,5.9,'11111222,11111222,11111222' 
TCOON,ioos:station:TCOON:006:1,2012-07-03T13:00:00Z,27.8217,-97.2040,0.0,4.4,131.0,5.8,'11111222,11111222,11111222' 
TCOON,ioos:station:TCOON:006:1,2012-07-03T14:00:00Z,27.8217,-97.2040,0.0,5.3,131.0,6.6,'11111222,11111222,11111222' 
TCOON,ioos:station:TCOON:006:1,2012-07-03T15:00:00Z,27.8217,-97.2040,0.0,4.9,128.0,6.8,'11111222,11111222,11111222' 
TCOON,ioos:station:TCOON:006:1,2012-07-03T16:00:00Z,27.8217,-97.2040,0.0,5.1,129.0,6.7,'11111222,11111222,11111222' 
TCOON,ioos:station:TCOON:006:1,2012-07-03T17:00:00Z,27.8217,-97.2040,0.0,6.3,130.0,7.6,'11111222,11111222,11111222' 
TCOON,ioos:station:TCOON:006:1,2012-07-03T18:00:00Z,27.8217,-97.2040,0.0,5.9,126.0,8.2,'11111222,11111222,11111222' 
TCOON,ioos:station:TCOON:006:1,2012-07-03T19:00:00Z,27.8217,-97.2040,0.0,6.3,130.0,7.7,'11111222,11111222,11111222' 
TCOON,ioos:station:TCOON:006:1,2012-07-03T20:00:00Z,27.8217,-97.2040,0.0,6.3,129.0,8.3,'11111222,11111222,11111222' 
TCOON,ioos:station:TCOON:006:1,2012-07-03T21:00:00Z,27.8217,-97.2040,0.0,7.0,135.0,9.5,'11111222,11111222,11111222' 
TCOON,ioos:station:TCOON:006:1,2012-07-03T22:00:00Z,27.8217,-97.2040,0.0,6.5,131.0,9.0,'11111222,11111222,11111222' 
TCOON,ioos:station:TCOON:006:1,2012-07-04T02:00:00Z,27.8217,-97.2040,0.0,6.3,148.0,8.2,'11111222,11111222,11111222' 
TCOON,ioos:station:TCOON:006:1,2012-07-04T03:00:00Z,27.8217,-97.2040,0.0,6.4,152.0,8.4,'11111222,11111222,11111222' 
TCOON,ioos:station:TCOON:006:1,2012-07-04T04:00:00Z,27.8217,-97.2040,0.0,7.7,152.0,8.9,'11111222,11111222,11111222' 
TCOON,ioos:station:TCOON:006:1,2012-07-04T05:00:00Z,27.8217,-97.2040,0.0,7.5,152.0,9.2,'11111222,11111222,11111222' 
TCOON,ioos:station:TCOON:006:1,2012-07-04T06:00:00Z,27.8217,-97.2040,0.0,7.5,152.0,8.7,'11111222,11111222,11111222' 
TCOON,ioos:station:TCOON:006:1,2012-07-04T07:00:00Z,27.8217,-97.2040,0.0,7.9,154.0,9.4,'11111222,11111222,11111222' 
TCOON,ioos:station:TCOON:006:1,2012-07-04T08:00:00Z,27.8217,-97.2040,0.0,6.7,158.0,9.7,'11111222,11111222,11111222' 
TCOON,ioos:station:TCOON:006:1,2012-07-04T09:00:00Z,27.8217,-97.2040,0.0,7.1,152.0,8.8,'11111222,11111222,11111222' 
TCOON,ioos:station:TCOON:006:1,2012-07-04T10:00:00Z,27.8217,-97.2040,0.0,6.6,157.0,8.4,'11111222,11111222,11111222' 
TCOON,ioos:station:TCOON:006:1,2012-07-04T11:00:00Z,27.8217,-97.2040,0.0,6.0,156.0,7.8,'11111222,11111222,11111222' 
TCOON,ioos:station:TCOON:006:1,2012-07-04T12:00:00Z,27.8217,-97.2040,0.0,6.1,155.0,7.6,'11111222,11111222,11111222' 
TCOON,ioos:station:TCOON:006:1,2012-07-04T13:00:00Z,27.8217,-97.2040,0.0,6.3,155.0,7.9,'11111222,11111222,11111222' 
TCOON,ioos:station:TCOON:006:1,2012-07-04T14:00:00Z,27.8217,-97.2040,0.0,6.4,156.0,7.9,'11111222,11111222,11111222' 
TCOON,ioos:station:TCOON:006:1,2012-07-04T15:00:00Z,27.8217,-97.2040,0.0,5.5,149.0,7.0,'11111222,11111222,11111222' 
TCOON,ioos:station:TCOON:006:1,2012-07-04T16:00:00Z,27.8217,-97.2040,0.0,5.0,150.0,7.7,'11111222,11111222,11111222' 
TCOON,ioos:station:TCOON:006:1,2012-07-04T17:00:00Z,27.8217,-97.2040,0.0,5.0,136.0,6.4,'11111222,11111222,11111222' 
TCOON,ioos:station:TCOON:006:1,2012-07-04T18:00:00Z,27.8217,-97.2040,0.0,5.6,131.0,7.3,'11111222,11111222,11111222' 
TCOON,ioos:station:TCOON:006:1,2012-07-04T19:00:00Z,27.8217,-97.2040,0.0,6.0,135.0,8.2,'11111222,11111222,11111222' 
TCOON,ioos:station:TCOON:006:1,2012-07-04T20:00:00Z,27.8217,-97.2040,0.0,6.1,127.0,8.9,'11111222,11111222,11111222' 
TCOON,ioos:station:TCOON:006:1,2012-07-04T21:00:00Z,27.8217,-97.2040,0.0,5.8,129.0,8.7,'11111222,11111222,11111222' 
TCOON,ioos:station:TCOON:006:1,2012-07-04T22:00:00Z,27.8217,-97.2040,0.0,6.5,141.0,8.8,'11111222,11111222,11111222' 
TCOON,ioos:station:TCOON:006:1,2012-07-04T23:00:00Z,27.8217,-97.2040,0.0,6.6,147.0,9.3,'11111222,11111222,11111222' 
TCOON,ioos:station:TCOON:006:1,2012-07-05T00:00:00Z,27.8217,-97.2040,0.0,6.3,138.0,8.2,'11111222,11111222,11111222' 
TCOON,ioos:station:TCOON:006:1,2012-07-05T01:00:00Z,27.8217,-97.2040,0.0,5.0,144.0,8.0,'11111222,11111222,11111222' 
TCOON,ioos:station:TCOON:006:1,2012-07-05T02:00:00Z,27.8217,-97.2040,0.0,7.6,152.0,9.6,'11111222,11111222,11111222' 
TCOON,ioos:station:TCOON:006:1,2012-07-05T03:00:00Z,27.8217,-97.2040,0.0,6.4,151.0,7.8,'11111222,11111222,11111222' 
TCOON,ioos:station:TCOON:006:1,2012-07-05T04:00:00Z,27.8217,-97.2040,0.0,5.0,144.0,7.8,'11111222,11111222,11111222' 
TCOON,ioos:station:TCOON:006:1,2012-07-05T05:00:00Z,27.8217,-97.2040,0.0,5.2,144.0,7.9,'11111222,11111222,11111222' 
TCOON,ioos:station:TCOON:006:1,2012-07-05T06:00:00Z,27.8217,-97.2040,0.0,6.6,150.0,8.7,'11111222,11111222,11111222' 
TCOON,ioos:station:TCOON:006:1,2012-07-05T07:00:00Z,27.8217,-97.2040,0.0,7.0,158.0,9.3,'11111222,11111222,11111222' 
TCOON,ioos:station:TCOON:006:1,2012-07-05T08:00:00Z,27.8217,-97.2040,0.0,6.8,157.0,7.9,'11111222,11111222,11111222' 
TCOON,ioos:station:TCOON:006:1,2012-07-05T09:00:00Z,27.8217,-97.2040,0.0,6.8,162.0,8.0,'11111222,11111222,11111222' 
TCOON,ioos:station:TCOON:006:1,2012-07-05T10:00:00Z,27.8217,-97.2040,0.0,6.3,152.0,7.7,'11111222,11111222,11111222' 
TCOON,ioos:station:TCOON:006:1,2012-07-05T11:00:00Z,27.8217,-97.2040,0.0,4.8,153.0,7.1,'11111222,11111222,11111222' 
TCOON,ioos:station:TCOON:006:1,2012-07-05T12:00:00Z,27.8217,-97.2040,0.0,6.1,154.0,7.5,'11111222,11111222,11111222' 
TCOON,ioos:station:TCOON:006:1,2012-07-05T13:00:00Z,27.8217,-97.2040,0.0,4.9,153.0,6.9,'11111222,11111222,11111222' 
TCOON,ioos:station:TCOON:006:1,2012-07-05T14:00:00Z,27.8217,-97.2040,0.0,4.5,139.0,6.1,'11111222,11111222,11111222' 
TCOON,ioos:station:TCOON:006:1,2012-07-05T15:00:00Z,27.8217,-97.2040,0.0,5.2,132.0,6.2,'11111222,11111222,11111222' 
TCOON,ioos:station:TCOON:006:1,2012-07-05T16:00:00Z,27.8217,-97.2040,0.0,4.6,128.0,6.1,'11111222,11111222,11111222' 
TCOON,ioos:station:TCOON:006:1,2012-07-05T17:00:00Z,27.8217,-97.2040,0.0,4.6,130.0,6.5,'11111222,11111222,11111222' 
TCOON,ioos:station:TCOON:006:1,2012-07-05T18:00:00Z,27.8217,-97.2040,0.0,4.4,136.0,6.5,'11111222,11111222,11111222' 
TCOON,ioos:station:TCOON:006:1,2012-07-05T19:00:00Z,27.8217,-97.2040,0.0,5.8,131.0,7.7,'11111222,11111222,11111222' 
TCOON,ioos:station:TCOON:006:1,2012-07-05T20:00:00Z,27.8217,-97.2040,0.0,4.8,127.0,7.5,'11111222,11111222,11111222' 
TCOON,ioos:station:TCOON:006:1,2012-07-05T21:00:00Z,27.8217,-97.2040,0.0,5.1,122.0,7.5,'11111222,11111222,11111222' 
TCOON,ioos:station:TCOON:006:1,2012-07-05T22:00:00Z,27.8217,-97.2040,0.0,4.7,107.0,7.0,'11111222,11111222,11111222' 
TCOON,ioos:station:TCOON:006:1,2012-07-05T23:00:00Z,27.8217,-97.2040,0.0,5.0,128.0,7.4,'11111222,11111222,11111222' 
TCOON,ioos:station:TCOON:006:1,2012-07-06T00:00:00Z,27.8217,-97.2040,0.0,5.5,133.0,8.3,'11111222,11111222,11111222' 
TCOON,ioos:station:TCOON:006:1,2012-07-06T01:00:00Z,27.8217,-97.2040,0.0,5.0,138.0,7.6,'11111222,11111222,11111222' 
TCOON,ioos:station:TCOON:006:1,2012-07-06T02:00:00Z,27.8217,-97.2040,0.0,4.0,123.0,6.3,'11111222,11111222,11111222' 
TCOON,ioos:station:TCOON:006:1,2012-07-06T03:00:00Z,27.8217,-97.2040,0.0,4.7,137.0,6.7,'11111222,11111222,11111222' 
TCOON,ioos:station:TCOON:006:1,2012-07-06T04:00:00Z,27.8217,-97.2040,0.0,5.4,154.0,6.6,'11111222,11111222,11111222' 
TCOON,ioos:station:TCOON:006:1,2012-07-06T05:00:00Z,27.8217,-97.2040,0.0,5.9,152.0,7.5,'11111222,11111222,11111222' 
TCOON,ioos:station:TCOON:006:1,2012-07-06T06:00:00Z,27.8217,-97.2040,0.0,4.5,147.0,6.4,'11111222,11111222,11111222' 
TCOON,ioos:station:TCOON:006:1,2012-07-06T07:00:00Z,27.8217,-97.2040,0.0,5.2,149.0,7.0,'11111222,11111222,11111222' 
TCOON,ioos:station:TCOON:006:1,2012-07-06T08:00:00Z,27.8217,-97.2040,0.0,6.3,170.0,7.4,'11111222,11111222,11111222' 
TCOON,ioos:station:TCOON:006:1,2012-07-06T09:00:00Z,27.8217,-97.2040,0.0,4.9,165.0,6.0,'11111222,11111222,11111222' 
TCOON,ioos:station:TCOON:006:1,2012-07-06T10:00:00Z,27.8217,-97.2040,0.0,4.8,175.0,6.1,'11111222,11111222,11111222' 
TCOON,ioos:station:TCOON:006:1,2012-07-06T11:00:00Z,27.8217,-97.2040,0.0,3.3,174.0,4.4,'11111222,11111222,11111222' 
TCOON,ioos:station:TCOON:006:1,2012-07-06T12:00:00Z,27.8217,-97.2040,0.0,2.6,172.0,4.5,'11111222,11111222,11111222' 
TCOON,ioos:station:TCOON:006:1,2012-07-06T13:00:00Z,27.8217,-97.2040,0.0,3.0,153.0,3.9,'11111222,11111222,11111222' 
TCOON,ioos:station:TCOON:006:1,2012-07-06T14:00:00Z,27.8217,-97.2040,0.0,3.6,151.0,4.3,'11111222,11111222,11111222' 
TCOON,ioos:station:TCOON:006:1,2012-07-06T15:00:00Z,27.8217,-97.2040,0.0,3.0,156.0,3.7,'11111222,11111222,11111222' 
TCOON,ioos:station:TCOON:006:1,2012-07-06T16:00:00Z,27.8217,-97.2040,0.0,2.9,133.0,4.6,'11111222,11111222,11111222' 
TCOON,ioos:station:TCOON:006:1,2012-07-06T17:00:00Z,27.8217,-97.2040,0.0,3.6,117.0,4.6,'11111222,11111222,11111222' 
TCOON,ioos:station:TCOON:006:1,2012-07-06T18:00:00Z,27.8217,-97.2040,0.0,3.9,121.0,5.4,'11111222,11111222,11111222' 
TCOON,ioos:station:TCOON:006:1,2012-07-06T19:00:00Z,27.8217,-97.2040,0.0,4.0,120.0,5.6,'11111222,11111222,11111222' 
TCOON,ioos:station:TCOON:006:1,2012-07-06T20:00:00Z,27.8217,-97.2040,0.0,4.3,120.0,6.4,'11111222,11111222,11111222' 
TCOON,ioos:station:TCOON:006:1,2012-07-06T21:00:00Z,27.8217,-97.2040,0.0,5.0,128.0,6.3,'11111222,11111222,11111222' 
TCOON,ioos:station:TCOON:006:1,2012-07-06T22:00:00Z,27.8217,-97.2040,0.0,4.6,123.0,6.4,'11111222,11111222,11111222' 
TCOON,ioos:station:TCOON:006:1,2012-07-06T23:00:00Z,27.8217,-97.2040,0.0,4.7,126.0,7.9,'11111222,11111222,11111222' 
TCOON,ioos:station:TCOON:006:1,2012-07-07T00:00:00Z,27.8217,-97.2040,0.0,4.2,139.0,6.3,'11111222,11111222,11111222' 
TCOON,ioos:station:TCOON:006:1,2012-07-07T01:00:00Z,27.8217,-97.2040,0.0,4.6,148.0,6.0,'11111222,11111222,11111222' 
TCOON,ioos:station:TCOON:006:1,2012-07-07T02:00:00Z,27.8217,-97.2040,0.0,4.6,145.0,6.9,'11111222,11111222,11111222' 
TCOON,ioos:station:TCOON:006:1,2012-07-07T03:00:00Z,27.8217,-97.2040,0.0,4.6,145.0,6.9,'11111222,11111222,11111222' 
TCOON,ioos:station:TCOON:006:1,2012-07-07T04:00:00Z,27.8217,-97.2040,0.0,6.2,160.0,7.6,'11111222,11111222,11111222' 
TCOON,ioos:station:TCOON:006:1,2012-07-07T05:00:00Z,27.8217,-97.2040,0.0,5.4,155.0,6.8,'11111222,11111222,11111222' 
TCOON,ioos:station:TCOON:006:1,2012-07-07T06:00:00Z,27.8217,-97.2040,0.0,5.3,152.0,6.3,'11111222,11111222,11111222' 
TCOON,ioos:station:TCOON:006:1,2012-07-07T07:00:00Z,27.8217,-97.2040,0.0,4.3,152.0,5.5,'11111222,11111222,11111222' 
TCOON,ioos:station:TCOON:006:1,2012-07-07T08:00:00Z,27.8217,-97.2040,0.0,4.8,170.0,5.9,'11111222,11111222,11111222' 
TCOON,ioos:station:TCOON:006:1,2012-07-07T09:00:00Z,27.8217,-97.2040,0.0,3.7,183.0,5.2,'11111222,11111222,11111222' 
TCOON,ioos:station:TCOON:006:1,2012-07-07T10:00:00Z,27.8217,-97.2040,0.0,4.6,189.0,5.1,'11111222,11111222,11111222' 
TCOON,ioos:station:TCOON:006:1,2012-07-07T11:00:00Z,27.8217,-97.2040,0.0,2.9,212.0,3.6,'11111222,11111222,11111222' 
TCOON,ioos:station:TCOON:006:1,2012-07-07T12:00:00Z,27.8217,-97.2040,0.0,1.2,225.0,1.9,'11111222,11111222,11111222' 
TCOON,ioos:station:TCOON:006:1,2012-07-07T13:00:00Z,27.8217,-97.2040,0.0,1.4,230.0,1.7,'11111222,11111222,11111222' 
TCOON,ioos:station:TCOON:006:1,2012-07-07T14:00:00Z,27.8217,-97.2040,0.0,2.2,215.0,2.8,'11111222,11111222,11111222' 
TCOON,ioos:station:TCOON:006:1,2012-07-07T15:00:00Z,27.8217,-97.2040,0.0,1.2,161.0,1.5,'11111222,11111222,11111222' 
TCOON,ioos:station:TCOON:006:1,2012-07-07T16:00:00Z,27.8217,-97.2040,0.0,1.3,117.0,2.1,'11111222,11111222,11111222' 
TCOON,ioos:station:TCOON:006:1,2012-07-07T17:00:00Z,27.8217,-97.2040,0.0,2.9,128.0,4.7,'11111222,11111222,11111222' 
TCOON,ioos:station:TCOON:006:1,2012-07-07T18:00:00Z,27.8217,-97.2040,0.0,3.4,125.0,4.7,'11111222,11111222,11111222' 
TCOON,ioos:station:TCOON:006:1,2012-07-07T19:00:00Z,27.8217,-97.2040,0.0,3.9,128.0,5.2,'11111222,11111222,11111222' 
TCOON,ioos:station:TCOON:006:1,2012-07-07T20:00:00Z,27.8217,-97.2040,0.0,5.2,131.0,6.4,'11111222,11111222,11111222' 
TCOON,ioos:station:TCOON:006:1,2012-07-07T21:00:00Z,27.8217,-97.2040,0.0,5.3,136.0,7.5,'11111222,11111222,11111222' 
TCOON,ioos:station:TCOON:006:1,2012-07-07T22:00:00Z,27.8217,-97.2040,0.0,5.9,135.0,7.4,'11111222,11111222,11111222' 
TCOON,ioos:station:TCOON:006:1,2012-07-07T23:00:00Z,27.8217,-97.2040,0.0,5.5,138.0,7.7,'11111222,11111222,11111222' 
TCOON,ioos:station:TCOON:006:1,2012-07-08T00:00:00Z,27.8217,-97.2040,0.0,4.5,146.0,6.9,'11111222,11111222,11111222' 
TCOON,ioos:station:TCOON:006:1,2012-07-08T01:00:00Z,27.8217,-97.2040,0.0,4.9,146.0,6.7,'11111222,11111222,11111222' 
TCOON,ioos:station:TCOON:006:1,2012-07-08T02:00:00Z,27.8217,-97.2040,0.0,6.1,152.0,7.3,'11111222,11111222,11111222' 
TCOON,ioos:station:TCOON:006:1,2012-07-08T03:00:00Z,27.8217,-97.2040,0.0,4.5,142.0,7.6,'11111222,11111222,11111222' 
TCOON,ioos:station:TCOON:006:1,2012-07-08T04:00:00Z,27.8217,-97.2040,0.0,6.4,150.0,8.4,'11111222,11111222,11111222' 
TCOON,ioos:station:TCOON:006:1,2012-07-08T05:00:00Z,27.8217,-97.2040,0.0,8.1,159.0,9.3,'11111222,11111222,11111222' 
TCOON,ioos:station:TCOON:006:1,2012-07-08T06:00:00Z,27.8217,-97.2040,0.0,7.1,166.0,8.4,'11111222,11111222,11111222' 
TCOON,ioos:station:TCOON:006:1,2012-07-08T07:00:00Z,27.8217,-97.2040,0.0,6.6,175.0,8.7,'11111222,11111222,11111222' 
TCOON,ioos:station:TCOON:006:1,2012-07-08T08:00:00Z,27.8217,-97.2040,0.0,7.3,183.0,9.3,'11111222,11111222,11111222' 
TCOON,ioos:station:TCOON:006:1,2012-07-08T09:00:00Z,27.8217,-97.2040,0.0,5.7,185.0,7.4,'11111222,11111222,11111222' 
TCOON,ioos:station:TCOON:006:1,2012-07-08T10:00:00Z,27.8217,-97.2040,0.0,4.5,213.0,5.2,'11111222,11111222,11111222' 
TCOON,ioos:station:TCOON:006:1,2012-07-08T11:00:00Z,27.8217,-97.2040,0.0,3.6,223.0,4.8,'11111222,11111222,11111222' 
TCOON,ioos:station:TCOON:006:1,2012-07-08T12:00:00Z,27.8217,-97.2040,0.0,4.2,211.0,4.8,'11111222,11111222,11111222' 
TCOON,ioos:station:TCOON:006:1,2012-07-08T13:00:00Z,27.8217,-97.2040,0.0,3.2,212.0,4.5,'11111222,11111222,11111222' 
TCOON,ioos:station:TCOON:006:1,2012-07-08T14:00:00Z,27.8217,-97.2040,0.0,2.4,196.0,3.4,'11111222,11111222,11111222' 
TCOON,ioos:station:TCOON:006:1,2012-07-08T15:00:00Z,27.8217,-97.2040,0.0,2.9,178.0,3.7,'11111222,11111222,11111222' 
TCOON,ioos:station:TCOON:006:1,2012-07-08T16:00:00Z,27.8217,-97.2040,0.0,2.0,148.0,2.8,'11111222,11111222,11111222' 
TCOON,ioos:station:TCOON:006:1,2012-07-08T17:00:00Z,27.8217,-97.2040,0.0,3.0,140.0,4.1,'11111222,11111222,11111222' 
TCOON,ioos:station:TCOON:006:1,2012-07-08T18:00:00Z,27.8217,-97.2040,0.0,4.3,151.0,5.5,'11111222,11111222,11111222' 
TCOON,ioos:station:TCOON:006:1,2012-07-08T19:00:00Z,27.8217,-97.2040,0.0,5.2,145.0,7.0,'11111222,11111222,11111222' 
TCOON,ioos:station:TCOON:006:1,2012-07-08T20:00:00Z,27.8217,-97.2040,0.0,5.5,136.0,7.3,'11111222,11111222,11111222' 
TCOON,ioos:station:TCOON:006:1,2012-07-08T21:00:00Z,27.8217,-97.2040,0.0,6.0,130.0,8.6,'11111222,11111222,11111222' 
TCOON,ioos:station:TCOON:006:1,2012-07-08T22:00:00Z,27.8217,-97.2040,0.0,5.5,137.0,7.7,'11111222,11111222,11111222' 
TCOON,ioos:station:TCOON:006:1,2012-07-08T23:00:00Z,27.8217,-97.2040,0.0,4.6,140.0,8.4,'11111222,11111222,11111222' 
TCOON,ioos:station:TCOON:006:1,2012-07-09T00:00:00Z,27.8217,-97.2040,0.0,5.9,142.0,8.1,'11111222,11111222,11111222' 
TCOON,ioos:station:TCOON:006:1,2012-07-09T01:00:00Z,27.8217,-97.2040,0.0,4.9,142.0,9.1,'11111222,11111222,11111222' 
TCOON,ioos:station:TCOON:006:1,2012-07-09T02:00:00Z,27.8217,-97.2040,0.0,5.9,149.0,8.1,'11111222,11111222,11111222' 
TCOON,ioos:station:TCOON:006:1,2012-07-09T03:00:00Z,27.8217,-97.2040,0.0,7.4,153.0,9.0,'11111222,11111222,11111222' 
TCOON,ioos:station:TCOON:006:1,2012-07-09T04:00:00Z,27.8217,-97.2040,0.0,6.4,147.0,9.3,'11111222,11111222,11111222' 
TCOON,ioos:station:TCOON:006:1,2012-07-09T05:00:00Z,27.8217,-97.2040,0.0,7.4,154.0,9.9,'11111222,11111222,11111222' 
TCOON,ioos:station:TCOON:006:1,2012-07-09T06:00:00Z,27.8217,-97.2040,0.0,7.7,164.0,9.4,'11111222,11111222,11111222' 
TCOON,ioos:station:TCOON:006:1,2012-07-09T07:00:00Z,27.8217,-97.2040,0.0,7.3,174.0,8.5,'11111222,11111222,11111222' 
TCOON,ioos:station:TCOON:006:1,2012-07-09T08:00:00Z,27.8217,-97.2040,0.0,7.4,175.0,9.9,'11111222,11111222,11111222' 
TCOON,ioos:station:TCOON:006:1,2012-07-09T09:00:00Z,27.8217,-97.2040,0.0,7.4,187.0,9.5,'11111222,11111222,11111222' 
TCOON,ioos:station:TCOON:006:1,2012-07-09T10:00:00Z,27.8217,-97.2040,0.0,6.6,194.0,8.5,'11111222,11111222,11111222' 
TCOON,ioos:station:TCOON:006:1,2012-07-09T11:00:00Z,27.8217,-97.2040,0.0,5.2,203.0,6.4,'11111222,11111222,11111222' 
TCOON,ioos:station:TCOON:006:1,2012-07-09T12:00:00Z,27.8217,-97.2040,0.0,6.4,197.0,8.1,'11111222,11111222,11111222' 
TCOON,ioos:station:TCOON:006:1,2012-07-09T13:00:00Z,27.8217,-97.2040,0.0,4.9,204.0,5.5,'11111222,11111222,11111222' 
TCOON,ioos:station:TCOON:006:1,2012-07-09T14:00:00Z,27.8217,-97.2040,0.0,5.0,204.0,6.1,'11111222,11111222,11111222' 